Indianapolis, IN

4:04 PM EDT on August 28, 2016 (GMT -0400)
Indianapolis International

Weather History for KIND - March, 2015

Change the Weather History Date:

Thursday, March 5, 2015

  Actual Average Record
Temperature  
Mean Temperature 16 °F 38 °F  
Max Temperature 23 °F 47 °F 75 °F (1956)
Min Temperature 8 °F 29 °F -1 °F (1978)
Degree Days  
Heating Degree Days 49 27  
Month to date heating degree days 198 138  
Since 1 July heating degree days 4924 4281  
Cooling Degree Days 0 0  
Month to date cooling degree days 0 0  
Year to date cooling degree days 0 0  
Moisture  
Dew Point 5 °F    
Average Humidity 60    
Maximum Humidity 69    
Minimum Humidity 51    
Precipitation  
Precipitation 0.00 in 0.10 in 3.06 in (1897)
Month to date precipitation 0.88 0.48  
Year to date precipitation 4.03 5.46  
Snow  
Snow 0.00 in 0.10 in 5.10 in (1899)
Month to date snowfall 5.9 0.6  
Since 1 July snowfall 25.6 23.7  
Snow Depth 6.00 in    
Sea Level Pressure  
Sea Level Pressure 30.44 in    
Wind  
Wind Speed 10 mph (NNW)    
Max Wind Speed 17 mph    
Max Gust Speed 20 mph    
Visibility 10 miles    
Events      
T = Trace of Precipitation, MM = Missing Value Source: NWS Daily Summary

Daily Weather History Graph

Daily Weather History Graph

Search for Another Location

Airport or City:

Trip Planner

Search our weather history database for the weather conditions in past years. The results will help you decide how hot, cold, wet, or windy it might be!

Date:

Astronomy

Mar. 05, 2015 Rise Set
Actual Time 7:12 AM EST 6:41 PM EST
Civil Twilight 6:45 AM EST 7:08 PM EST
Nautical Twilight 6:14 AM EST 7:39 PM EST
Astronomical Twilight 5:43 AM EST 8:10 PM EST
Moon 6:53 PM EST (3/5) 6:57 AM EST (3/5)
Length of Visible Light 12h 22m
Length of Day
11h 28m
Full, 100% of the Moon is Illuminated
Mar 5
Full
Mar 5
Full
Mar 13
Last Quarter
Mar 20
New
Mar 27
First Quarter

Hourly Weather History & Observations

Time (EST) Temp. Windchill Dew Point Humidity Pressure Visibility Wind Dir Wind Speed Gust Speed Precip Events Conditions
12:54 AM 19.0 °F 5.6 °F 9.0 °F 65% 30.31 in 10.0 mi NNW 13.8 mph - N/A   Overcast
1:54 AM 18.0 °F 6.9 °F 8.1 °F 65% 30.32 in 10.0 mi NNW 9.2 mph - N/A   Overcast
2:54 AM 18.0 °F 6.1 °F 7.0 °F 62% 30.33 in 10.0 mi North 10.4 mph - N/A   Overcast
3:54 AM 17.6 °F 5.7 °F 6.8 °F 63% 30.29 in 10.0 mi NNW 10.4 mph - N/A   Overcast
4:54 AM 17.1 °F 4.3 °F 6.1 °F 62% 30.35 in 10.0 mi NNW 11.5 mph - N/A   Overcast
5:54 AM 17.1 °F 5.8 °F 6.1 °F 62% 30.34 in 10.0 mi North 9.2 mph - N/A   Overcast
6:54 AM 16.0 °F 2.9 °F 6.1 °F 65% 30.37 in 10.0 mi NNW 11.5 mph - N/A   Overcast
7:54 AM 16.0 °F 2.9 °F 5.0 °F 62% 30.36 in 10.0 mi North 11.5 mph - N/A   Overcast
8:54 AM 17.1 °F 6.6 °F 5.0 °F 59% 30.41 in 10.0 mi North 8.1 mph - N/A   Overcast
9:54 AM 18.0 °F 7.7 °F 6.1 °F 60% 30.42 in 10.0 mi North 8.1 mph - N/A   Mostly Cloudy
10:54 AM 19.9 °F 11.1 °F 7.0 °F 57% 30.43 in 10.0 mi North 6.9 mph - N/A   Partly Cloudy
11:54 AM 21.9 °F 11.7 °F 8.1 °F 55% 30.43 in 10.0 mi NW 9.2 mph - N/A   Partly Cloudy
12:54 PM 21.9 °F 12.5 °F 7.0 °F 53% 30.44 in 10.0 mi NNW 8.1 mph - N/A   Scattered Clouds
1:54 PM 21.0 °F 9.9 °F 6.1 °F 53% 30.45 in 10.0 mi NW 10.4 mph - N/A   Mostly Cloudy
2:54 PM 21.0 °F 9.3 °F 6.1 °F 53% 30.46 in 10.0 mi NW 11.5 mph - N/A   Mostly Cloudy
3:54 PM 19.9 °F 8.6 °F 5.0 °F 52% 30.48 in 10.0 mi NW 10.4 mph - N/A   Mostly Cloudy
4:54 PM 19.9 °F 7.3 °F 7.0 °F 57% 30.51 in 10.0 mi WNW 12.7 mph - N/A   Scattered Clouds
5:54 PM 17.1 °F 4.3 °F 6.1 °F 62% 30.52 in 10.0 mi WNW 11.5 mph - N/A   Scattered Clouds
6:54 PM 16.0 °F 4.4 °F 6.1 °F 65% 30.54 in 10.0 mi NW 9.2 mph - N/A   Partly Cloudy
7:54 PM 14.0 °F 2.0 °F 3.2 °F 62% 30.52 in 10.0 mi NW 9.2 mph - N/A   Clear
8:54 PM 12.0 °F -0.4 °F 1.9 °F 64% 30.58 in 10.0 mi NW 9.2 mph - N/A   Clear
9:54 PM 10.0 °F -0.9 °F 1.0 °F 67% 30.58 in 10.0 mi NW 6.9 mph - N/A   Clear
10:54 PM 9.0 °F -2.2 °F -0.0 °F 67% 30.59 in 10.0 mi NW 6.9 mph - N/A   Clear
11:54 PM 8.1 °F -0.5 °F -0.9 °F 67% 30.59 in 10.0 mi NW 4.6 mph - N/A   Clear